Location: Oberkirch
(48.5323°N, 8.0787°E)
Time: 17:43:25
(UTC+00:00)

Tiros 1 - All Passes

Search period start: 16 February 2026 00:00
Search period end: 26 February 2026 00:00
Orbit: 618 x 649 km, 48.4° (Epoch: 15 February)

Date Brightness Start Highest point End Pass type
(mag) Time Alt. Az. Time Alt. Az. Time Alt. Az.
16 Feb - 07:43:07 10° S 07:45:40 15° SE 07:48:13 10° ESE daylight
16 Feb - 09:22:23 10° SW 09:26:48 48° SSE 09:31:11 10° E daylight
16 Feb - 11:03:57 10° W 11:08:32 88° S 11:13:07 10° E daylight
16 Feb - 12:45:52 10° W 12:50:26 73° SSW 12:54:59 10° ESE daylight
16 Feb - 14:28:00 10° W 14:31:55 28° SW 14:35:48 10° SSE daylight
17 Feb - 08:03:06 10° SSW 08:06:54 26° SE 08:10:42 10° E daylight
17 Feb - 09:43:47 10° WSW 09:48:21 69° SSE 09:52:53 10° E daylight
17 Feb - 11:25:38 10° W 11:30:14 89° S 11:34:48 10° E daylight
17 Feb - 13:07:34 10° W 13:12:00 52° SSW 13:16:25 10° SE daylight
17 Feb - 14:50:21 10° W 14:53:11 16° SW 14:56:00 10° S daylight
18 Feb - 06:45:28 10° SSE 06:47:16 12° SE 06:49:03 10° ESE daylight
18 Feb - 08:23:58 10° SW 08:28:18 42° SSE 08:32:37 10° E daylight
18 Feb - 10:05:23 10° W 10:09:59 85° S 10:14:34 10° E daylight
18 Feb - 11:47:19 10° W 11:51:54 78° SSW 11:56:27 10° ESE daylight
18 Feb - 13:29:22 10° W 13:33:27 33° SSW 13:37:31 10° SSE daylight
19 Feb - 07:04:54 10° SSW 07:08:28 22° SE 07:12:00 10° E daylight
19 Feb - 08:45:16 10° WSW 08:49:49 63° SSE 08:54:20 10° E daylight
19 Feb - 10:27:04 10° W 10:31:40 90° SSW 10:36:15 10° E daylight
19 Feb - 12:09:00 10° W 12:13:30 58° SSW 12:17:57 10° ESE daylight
19 Feb - 13:51:30 10° W 13:54:45 19° SW 13:58:00 10° S daylight
20 Feb - 07:25:34 10° SW 07:29:48 37° SSE 07:34:01 10° E daylight
20 Feb - 09:06:50 10° WSW 09:11:26 81° S 09:16:00 10° E daylight
20 Feb - 10:48:45 10° W 10:53:20 83° S 10:57:54 10° ESE daylight
20 Feb - 12:30:45 10° W 12:34:58 38° SSW 12:39:11 10° SE daylight
20 Feb - 14:15:39 10° SW 14:15:55 10° SW 14:16:12 10° SW daylight
21 Feb - 06:06:47 10° S 06:10:01 19° SE 06:13:14 10° E daylight
21 Feb - 07:46:46 10° SW 07:51:17 57° SSE 07:55:47 10° E daylight
21 Feb - 09:28:29 10° W 09:33:06 90° SSW 09:37:40 10° E daylight
21 Feb - 11:10:25 10° W 11:14:57 65° SSW 11:19:28 10° ESE daylight
21 Feb - 12:52:43 10° W 12:56:19 23° SW 12:59:54 10° SSE daylight
22 Feb - 06:27:12 10° SSW 06:31:19 32° SSE 06:35:24 10° E daylight
22 Feb - 08:08:15 10° WSW 08:12:52 77° SSE 08:17:27 10° E daylight
22 Feb - 09:50:10 10° W 09:54:46 86° S 09:59:21 10° E daylight
22 Feb - 11:32:07 10° W 11:36:28 44° SSW 11:40:47 10° SE daylight
22 Feb - 13:15:33 10° WSW 13:17:31 13° SW 13:19:28 10° SSW daylight
23 Feb - 05:08:47 10° S 05:11:35 16° SE 05:14:21 10° E visible
23 Feb - 06:48:16 10° SW 06:52:45 50° SSE 06:57:12 10° E daylight
23 Feb - 08:29:53 10° W 08:34:31 88° S 08:39:07 10° E daylight
23 Feb - 10:11:49 10° W 10:16:24 71° SSW 10:20:56 10° ESE daylight
23 Feb - 11:54:01 10° W 11:57:52 27° SW 12:01:41 10° SSE daylight
24 Feb - 05:28:54 10° SSW 05:32:50 28° SE 05:36:44 10° E visible
24 Feb - 07:09:41 10° WSW 07:14:18 71° SSE 07:18:52 10° E daylight
24 Feb - 08:51:34 10° W 08:56:12 88° S 09:00:47 10° E daylight
24 Feb - 10:33:31 10° W 10:37:57 50° SSW 10:42:21 10° SE daylight
24 Feb - 12:16:25 10° WSW 12:19:06 15° SW 12:21:45 10° S daylight
25 Feb - 04:10:59 10° SSE 04:13:08 13° SE 04:15:17 10° ESE visible
25 Feb - 05:49:48 10° SW 05:54:13 44° SSE 05:58:36 10° E daylight
25 Feb - 07:31:17 10° W 07:35:55 86° S 07:40:32 10° E daylight
25 Feb - 09:13:14 10° W 09:17:50 77° SSW 09:22:24 10° ESE daylight
25 Feb - 10:55:19 10° W 10:59:23 31° SSW 11:03:24 10° SSE daylight
